Kingman, AZ

2:36 AM MST on October 24, 2017 (GMT -0700)
Kingman

Weather History for KIGM - March, 2013

Change the Weather History Date:

Saturday, March 30, 2013

  Actual Average Record
Temperature  
Mean Temperature 65 °F 54 °F  
Max Temperature 79 °F 69 °F 87 °F (2004)
Min Temperature 50 °F 40 °F 22 °F (1975)
Degree Days  
Heating Degree Days 0 11  
Month to date heating degree days 256 408  
Since 1 July heating degree days 2723 2821  
Cooling Degree Days 0 0  
Month to date cooling degree days 6 0  
Year to date cooling degree days 6 0  
Growing Degree Days 15 (Base 50)    
Moisture  
Dew Point 28 °F    
Average Humidity 28    
Maximum Humidity 41    
Minimum Humidity 15    
Precipitation  
Precipitation 0.00 in 0.02 in 0.07 in (1973)
Month to date precipitation 0.14 0.74  
Year to date precipitation 1.13 2.90  
Sea Level Pressure  
Sea Level Pressure 29.93 in    
Wind  
Wind Speed 5 mph (SSW)    
Max Wind Speed 15 mph    
Max Gust Speed 21 mph    
Visibility 10 miles    
Events      
T = Trace of Precipitation, MM = Missing Value Source: NWS Daily Summary

Daily Weather History Graph

Daily Weather History Graph

Search for Another Location

Airport or City:

Trip Planner

Search our weather history database for the weather conditions in past years. The results will help you decide how hot, cold, wet, or windy it might be!

Date:

Astronomy

Mar. 30, 2013 Rise Set
Actual Time 6:24 AM MST 6:55 PM MST
Civil Twilight 5:59 AM MST 7:21 PM MST
Nautical Twilight 5:29 AM MST 7:51 PM MST
Astronomical Twilight 4:58 AM MST 8:22 PM MST
Moon 10:57 PM MST (3/30) 8:31 AM MST (3/30)
Length of Visible Light 13h 22m
Length of Day
12h 31m
Waning Gibbous, 85% of the Moon is Illuminated
Mar 30
Waning Gibbous
Apr 2
Last Quarter
Apr 10
New
Apr 18
First Quarter
Apr 25
Full

Hourly Weather History & Observations

Time (MST) Temp. Dew Point Humidity Pressure Visibility Wind Dir Wind Speed Gust Speed Precip Events Conditions
12:51 AM 55.9 °F 26.1 °F 32% 29.96 in 10.0 mi SE 8.1 mph - N/A   Clear
1:51 AM 57.0 °F 26.1 °F 30% 29.96 in 10.0 mi South 5.8 mph - N/A   Clear
2:51 AM 55.0 °F 26.1 °F 33% 29.95 in 10.0 mi Calm Calm - N/A   Clear
3:51 AM 51.1 °F 27.0 °F 39% 29.95 in 10.0 mi Calm Calm - N/A   Clear
4:51 AM 55.9 °F 28.0 °F 34% 29.93 in 10.0 mi Calm Calm - N/A   Clear
5:51 AM 51.1 °F 28.9 °F 43% 29.95 in 9.0 mi SSE 3.5 mph - N/A   Clear
6:51 AM 54.0 °F 30.0 °F 40% 29.97 in 10.0 mi SE 5.8 mph - N/A   Partly Cloudy
7:51 AM 60.1 °F 30.9 °F 33% 29.98 in 10.0 mi ESE 4.6 mph - N/A   Overcast
8:51 AM 66.9 °F 28.0 °F 23% 29.97 in 10.0 mi ESE 5.8 mph - N/A   Clear
9:51 AM 72.0 °F 30.9 °F 22% 29.96 in 10.0 mi West 5.8 mph - N/A   Clear
10:51 AM 73.0 °F 28.9 °F 20% 29.96 in 10.0 mi SW 9.2 mph - N/A   Clear
11:51 AM 75.0 °F 30.0 °F 19% 29.96 in 10.0 mi SSW 8.1 mph - N/A   Clear
12:51 PM 77.0 °F 28.0 °F 17% 29.93 in 10.0 mi SW 11.5 mph - N/A   Scattered Clouds
1:51 PM 78.1 °F 27.0 °F 15% 29.91 in 10.0 mi WSW 12.7 mph - N/A   Scattered Clouds
2:51 PM 77.0 °F 28.9 °F 17% 29.90 in 10.0 mi SW 12.7 mph 19.6 mph N/A   Mostly Cloudy
3:51 PM 73.9 °F 28.9 °F 19% 29.90 in 10.0 mi SW 4.6 mph - N/A   Overcast
4:51 PM 73.9 °F 28.0 °F 18% 29.88 in 10.0 mi SSW 6.9 mph - N/A   Overcast
5:51 PM 73.9 °F 27.0 °F 18% 29.88 in 10.0 mi Calm Calm - N/A   Partly Cloudy
6:51 PM 70.0 °F 28.0 °F 21% 29.88 in 10.0 mi Calm Calm - N/A   Clear
7:51 PM 62.1 °F 28.9 °F 29% 29.90 in 10.0 mi SSW 5.8 mph - N/A   Scattered Clouds
8:51 PM 60.1 °F 28.9 °F 31% 29.90 in 10.0 mi South 8.1 mph - N/A   Clear
9:51 PM 55.9 °F 28.9 °F 36% 29.90 in 10.0 mi South 9.2 mph - N/A   Clear
10:51 PM 59.0 °F 28.9 °F 32% 29.90 in 10.0 mi Calm Calm - N/A   Clear
11:51 PM 55.0 °F 27.0 °F 34% 29.89 in 10.0 mi Calm Calm - N/A   Clear